Butler, GA

8:11 AM EST on November 21, 2019 (GMT -0500)
Butler

Weather History for K6A1 - October, 2019

Change the Weather History Date:

Monday, October 21, 2019

  Actual Average (KMCN) Record (KMCN)
Temperature  
Mean Temperature 67 °F -  
Max Temperature 80 °F 76 °F 90 °F (1963)
Min Temperature 54 °F 49 °F 31 °F (1989)
Cooling Degree Days 2    
Growing Degree Days 17 (Base 50)    
Moisture  
Dew Point 61 °F    
Average Humidity 83    
Maximum Humidity 99    
Minimum Humidity 49    
Precipitation  
Precipitation 0.00 in - - ()
Sea Level Pressure  
Sea Level Pressure 29.98 in    
Wind  
Wind Speed 1 mph ()    
Max Wind Speed 9 mph    
Max Gust Speed -    
Visibility 7.3 miles    
Events Fog , Rain    
Averages and records for this station are not official NWS values.
T = Trace of Precipitation, MM = Missing Value Source: Averaged Metar Reports

Daily Weather History Graph

Daily Weather History Graph

Search for Another Location

Airport or City:

Astronomy

Oct. 21, 2019 Rise Set
Actual Time 7:45 AM EDT 6:57 PM EDT
Civil Twilight 7:20 AM EDT 7:22 PM EDT
Nautical Twilight 6:51 AM EDT 7:51 PM EDT
Astronomical Twilight 6:23 AM EDT 8:19 PM EDT
Moon 12:19 AM EDT 2:51 PM EDT
Length of Visible Light 12h 02m
Length of Day
11h 12m
Waning Gibbous, 48% of the Moon is Illuminated
Oct 21
Waning Gibbous
Oct 27
New
Nov 4
First Quarter
Nov 12
Full
Nov 19
Last Quarter

Hourly Weather History & Observations

Time (EDT) Temp. Heat Index Dew Point Humidity Pressure Visibility Wind Dir Wind Speed Gust Speed Precip Events Conditions
12:15 AM 61.7 °F - 60.4 °F 96% 29.99 in 10.0 mi Calm Calm - N/A   Unknown
12:35 AM 62.2 °F - 61.0 °F 96% 29.99 in 10.0 mi Calm Calm - N/A   Unknown
12:55 AM 60.8 °F - 59.4 °F 95% 29.99 in 10.0 mi Calm Calm - N/A   Unknown
1:15 AM 61.7 °F - 60.8 °F 97% 29.99 in 10.0 mi Calm Calm - N/A   Unknown
1:35 AM 60.1 °F - 59.2 °F 97% 29.99 in 10.0 mi Calm Calm - N/A   Unknown
1:55 AM 60.4 °F - 59.9 °F 98% 29.98 in 10.0 mi Calm Calm - N/A   Unknown
2:15 AM 59.4 °F - 58.6 °F 97% 29.98 in 10.0 mi Calm Calm - N/A   Unknown
2:35 AM 59.9 °F - 59.4 °F 98% 29.98 in 10.0 mi Calm Calm - N/A   Unknown
2:55 AM 58.3 °F - 57.7 °F 98% 29.97 in 10.0 mi Calm Calm - N/A   Unknown
3:15 AM 59.0 °F - 58.6 °F 99% 29.97 in 10.0 mi Calm Calm - N/A   Unknown
3:35 AM 59.4 °F - 59.0 °F 99% 29.96 in 4.0 mi Calm Calm - N/A   Mist
3:55 AM 58.6 °F - 58.3 °F 99% 29.96 in 0.5 mi Calm Calm - N/A Fog Fog
4:15 AM 58.1 °F - 57.7 °F 99% 29.97 in 5.0 mi Calm Calm - N/A   Mist
4:35 AM 57.6 °F - 57.2 °F 99% 29.96 in 4.0 mi Calm Calm - N/A   Mist
4:55 AM 58.8 °F - 58.5 °F 99% 29.97 in 0.5 mi Calm Calm - N/A Fog Fog
5:15 AM 58.3 °F - 57.7 °F 98% 29.97 in 0.2 mi Calm Calm - N/A Fog Fog
5:35 AM 56.7 °F - 56.3 °F 99% 29.97 in 0.5 mi Calm Calm - N/A Fog Fog
5:55 AM 57.2 °F - 56.8 °F 99% 29.98 in 0.2 mi Calm Calm - N/A Fog Fog
6:15 AM 56.7 °F - 56.3 °F 99% 29.98 in 0.8 mi Calm Calm - N/A   Mist
6:35 AM 55.9 °F - 55.8 °F 99% 29.98 in 0.5 mi Calm Calm - N/A Fog Fog
6:55 AM 55.4 °F - 54.9 °F 98% 29.99 in 0.2 mi Calm Calm - N/A Fog Fog
7:15 AM 54.5 °F - 54.1 °F 99% 29.98 in 0.2 mi Calm Calm - N/A Fog Fog
7:35 AM 55.8 °F - 55.4 °F 99% 29.99 in 0.2 mi Calm Calm - N/A Fog Fog
7:55 AM 56.3 °F - 55.9 °F 99% 29.99 in 0.2 mi Calm Calm - N/A Fog Fog
8:15 AM 56.3 °F - 56.1 °F 99% 29.98 in 0.2 mi Calm Calm - N/A Fog Fog
8:35 AM 57.4 °F - 57.2 °F 99% 30.00 in 0.2 mi Calm Calm - N/A Fog Fog
8:55 AM 59.2 °F - 58.8 °F 99% 30.00 in 0.2 mi Calm Calm - N/A Fog Fog
9:15 AM 60.3 °F - 59.9 °F 99% 30.01 in 0.2 mi Calm Calm - N/A Fog Fog
9:35 AM 61.3 °F - 61.0 °F 99% 30.01 in 0.2 mi SE 3.5 mph - N/A Fog Fog
9:55 AM 62.6 °F - 62.2 °F 99% 30.01 in 0.5 mi South 4.6 mph - N/A Fog Fog
10:15 AM 62.8 °F - 62.6 °F 99% 30.02 in 2.0 mi SSE 3.5 mph - N/A   Mist
10:35 AM 65.1 °F - 64.6 °F 98% 30.03 in 5.0 mi SSE 5.8 mph - N/A   Mist
10:55 AM 65.3 °F - 64.8 °F 98% 30.03 in 10.0 mi SSE 3.5 mph - N/A   Unknown
11:15 AM 65.8 °F - 65.5 °F 99% 30.02 in 10.0 mi SSE 4.6 mph - N/A   Unknown
11:55 AM 66.9 °F - 66.4 °F 98% 30.03 in 10.0 mi SSE 6.9 mph - N/A   Unknown
12:15 PM 71.4 °F - 63.7 °F 76% 30.03 in 10.0 mi SSE 5.8 mph - N/A   Unknown
12:35 PM 74.3 °F - 63.5 °F 69% 30.02 in 10.0 mi SSE 5.8 mph - N/A   Unknown
12:55 PM 73.0 °F - 63.0 °F 71% 30.02 in 10.0 mi SSE 8.1 mph - N/A   Unknown
1:15 PM 73.9 °F - 63.0 °F 68% 30.01 in 10.0 mi South 4.6 mph - N/A   Unknown
1:35 PM 74.3 °F - 63.0 °F 68% 30.00 in 10.0 mi South 5.8 mph - N/A   Unknown
1:55 PM 76.3 °F - 63.1 °F 64% 29.99 in 10.0 mi East 8.1 mph - N/A   Unknown
2:15 PM 77.5 °F - 62.8 °F 60% 29.97 in 10.0 mi ESE 8.1 mph - N/A   Unknown
2:35 PM 77.7 °F - 61.7 °F 58% 29.97 in 10.0 mi South 5.8 mph - N/A   Unknown
2:55 PM 77.9 °F - 59.5 °F 53% 29.97 in 10.0 mi South 5.8 mph - N/A   Unknown
3:15 PM 79.5 °F - 61.0 °F 53% 29.97 in 10.0 mi SSE 8.1 mph - N/A   Unknown
3:35 PM 78.1 °F - 60.8 °F 55% 29.97 in 10.0 mi ESE 3.5 mph - N/A   Unknown
3:55 PM 80.1 °F 80.8 °F 59.4 °F 49% 29.98 in 10.0 mi South 5.8 mph - N/A   Unknown
4:15 PM 79.5 °F - 59.4 °F 50% 29.98 in 10.0 mi South 3.5 mph - N/A   Unknown
4:35 PM 79.0 °F - 59.5 °F 51% 29.97 in 10.0 mi SSW 4.6 mph - N/A   Unknown
4:55 PM 79.0 °F - 60.1 °F 52% 29.96 in 10.0 mi South 4.6 mph - N/A   Unknown
5:15 PM 78.3 °F - 60.4 °F 54% 29.95 in 10.0 mi South 3.5 mph - N/A   Unknown
5:35 PM 77.9 °F - 61.0 °F 56% 29.96 in 10.0 mi Calm Calm - N/A   Unknown
5:55 PM 77.4 °F - 60.8 °F 57% 29.95 in 10.0 mi Calm Calm - N/A   Unknown
6:15 PM 76.5 °F - 61.7 °F 60% 29.95 in 10.0 mi Calm Calm - N/A   Unknown
6:35 PM 74.8 °F - 62.6 °F 66% 29.95 in 10.0 mi Calm Calm - N/A   Unknown
6:55 PM 72.7 °F - 63.5 °F 73% 29.95 in 10.0 mi Calm Calm - N/A   Unknown
7:15 PM 72.1 °F - 63.3 °F 74% 29.95 in 10.0 mi Calm Calm - N/A   Unknown
7:35 PM 70.9 °F - 63.0 °F 76% 29.95 in 10.0 mi ESE 3.5 mph - N/A   Unknown
7:55 PM 71.1 °F - 62.8 °F 75% 29.97 in 10.0 mi Calm Calm - N/A   Unknown
8:15 PM 71.6 °F - 63.1 °F 75% 29.97 in 10.0 mi Calm Calm - N/A   Unknown
8:35 PM 70.5 °F - 63.9 °F 79% 29.97 in 10.0 mi Calm Calm - N/A   Unknown
8:55 PM 69.8 °F - 63.9 °F 81% 29.97 in 10.0 mi Calm Calm - N/A   Unknown
9:15 PM 69.6 °F - 64.0 °F 82% 29.97 in 10.0 mi Calm Calm - N/A   Unknown
9:35 PM 67.6 °F - 63.7 °F 87% 29.97 in 10.0 mi Calm Calm - N/A   Unknown
9:55 PM 68.7 °F - 63.5 °F 83% 29.97 in 10.0 mi Calm Calm - N/A   Unknown
10:15 PM 70.0 °F - 62.8 °F 78% 29.98 in 10.0 mi SE 4.6 mph - N/A   Unknown
10:35 PM 71.8 °F - 61.7 °F 70% 29.97 in 10.0 mi SE 4.6 mph - N/A   Unknown
10:55 PM 71.2 °F - 62.1 °F 73% 29.97 in 10.0 mi South 3.5 mph - N/A   Unknown
11:15 PM 71.2 °F - 62.6 °F 74% 29.96 in 10.0 mi SSE 8.1 mph - N/A   Unknown
11:35 PM 70.7 °F - 63.1 °F 77% 29.95 in 10.0 mi South 5.8 mph - N/A   Unknown
11:55 PM 71.6 °F - 63.3 °F 75% 29.93 in 10.0 mi SSE 9.2 mph - N/A Rain Light Rain